Location: Banios
(43.0451°N, 0.2335°E)
Time: 12:03:14
(UTC+00:00)

A-11 Canister half - Pass Details

Date: 17 May 2021
Orbit: 1513 x 1686 km, 47.2° (Epoch: 14 June)

Event Time Altitude Azimuth Distance (km) Brightness Sun altitude
Rises 22:15:10 0° 283° (WNW) 4,691 12.1 -23.3°
Reaches altitude 10° 22:21:47 10° 250° (WSW) 3,740 11.1 -23.8°
Maximum altitude 22:23:42 11° 238° (WSW) 3,691 10.9 -23.9°
Drops below altitude 10° 22:25:38 10° 226° (SW) 3,763 10.8 -24.1°
Enters shadow 22:27:33 - 215° (SW) 3,944 10.8 -24.2°
Sets 22:32:27 0° 193° (SSW) 4,792 - -24.6°
